Pierceville, KS

4:23 PM CDT on August 28, 2016 (GMT -0500)
Garden City Regional

Weather History for KGCK - October, 2011

Change the Weather History Date:

Friday, October 7, 2011

  Actual Average Record
Temperature  
Mean Temperature 73 °F 59 °F  
Max Temperature 84 °F 73 °F 94 °F (1949)
Min Temperature 62 °F 45 °F 28 °F (2000)
Degree Days  
Heating Degree Days 0 7  
Month to date heating degree days 45  
Since 1 July heating degree days 117  
Cooling Degree Days 8 1  
Month to date cooling degree days 11  
Year to date cooling degree days 1289  
Growing Degree Days 23 (Base 50)    
Moisture  
Dew Point 52 °F    
Average Humidity 53    
Maximum Humidity 76    
Minimum Humidity 34    
Precipitation  
Precipitation 0.00 in 0.04 in 0.35 in (2009)
Month to date precipitation 0.35  
Year to date precipitation 17.47  
Sea Level Pressure  
Sea Level Pressure 29.77 in    
Wind  
Wind Speed 19 mph (South)    
Max Wind Speed 34 mph    
Max Gust Speed 48 mph    
Visibility 10 miles    
Events      
T = Trace of Precipitation, MM = Missing Value Source: NWS Daily Summary

Daily Weather History Graph

Daily Weather History Graph

Search for Another Location

Airport or City:

Trip Planner

Search our weather history database for the weather conditions in past years. The results will help you decide how hot, cold, wet, or windy it might be!

Date:

Astronomy

Oct. 07, 2011 Rise Set
Actual Time 7:43 AM CDT 7:17 PM CDT
Civil Twilight 7:17 AM CDT 7:43 PM CDT
Nautical Twilight 6:46 AM CDT 8:13 PM CDT
Astronomical Twilight 6:16 AM CDT 8:44 PM CDT
Moon 4:57 PM CDT (10/7) 3:38 AM CDT (10/7)
Length of Visible Light 12h 26m
Length of Day
11h 33m
Waxing Gibbous, 83% of the Moon is Illuminated
Oct 7
Waxing Gibbous
Oct 11
Full
Oct 19
Last Quarter
Oct 26
New
Nov 2
First Quarter

Hourly Weather History & Observations

Time (CDT) Temp. Heat Index Dew Point Humidity Pressure Visibility Wind Dir Wind Speed Gust Speed Precip Events Conditions
12:54 AM 68.0 °F - 57.0 °F 68% 29.63 in 10.0 mi South 28.8 mph 39.1 mph N/A   Widespread Dust
1:54 AM 68.0 °F - 57.0 °F 68% 29.65 in 10.0 mi South 25.3 mph 36.8 mph N/A   Widespread Dust
2:54 AM 69.1 °F - 57.9 °F 68% 29.68 in 10.0 mi South 28.8 mph 39.1 mph N/A   Widespread Dust
3:54 AM 68.0 °F - 59.0 °F 73% 29.71 in 10.0 mi SSW 23.0 mph 28.8 mph N/A   Widespread Dust
4:54 AM 68.0 °F - 59.0 °F 73% 29.73 in 10.0 mi SW 13.8 mph - N/A   Widespread Dust
5:30 AM 68.0 °F - 57.2 °F 68% 29.83 in 10.0 mi SW 10.4 mph - N/A   Widespread Dust
5:54 AM 68.0 °F - 57.9 °F 70% 29.74 in 10.0 mi SW 10.4 mph - N/A   Widespread Dust
6:54 AM 62.1 °F - 41.0 °F 46% 29.77 in 10.0 mi NNW 6.9 mph - N/A   Widespread Dust
7:04 AM 62.6 °F - 39.2 °F 42% 29.85 in 10.0 mi NNW 5.8 mph - N/A   Widespread Dust
7:18 AM 62.6 °F - 39.2 °F 42% 29.85 in 10.0 mi North 3.5 mph - N/A   Widespread Dust
7:38 AM 62.6 °F - 39.2 °F 42% 29.86 in 10.0 mi North 3.5 mph - N/A   Widespread Dust
7:54 AM 63.0 °F - 37.9 °F 40% 29.79 in 10.0 mi Calm Calm - N/A   Widespread Dust
8:25 AM 62.6 °F - 39.2 °F 42% 29.87 in 10.0 mi Calm Calm - N/A   Mostly Cloudy
8:32 AM 62.6 °F - 37.4 °F 39% 29.87 in 10.0 mi Calm Calm - N/A   Overcast
8:54 AM 64.9 °F - 37.0 °F 36% 29.80 in 10.0 mi Calm Calm - N/A   Overcast
9:54 AM 68.0 °F - 52.0 °F 56% 29.81 in 10.0 mi South 8.1 mph - N/A   Overcast
10:54 AM 72.0 °F - 57.9 °F 61% 29.81 in 10.0 mi SSW 17.3 mph - N/A   Overcast
11:54 AM 77.0 °F - 57.2 °F 50% 29.89 in 10.0 mi SSW 17.3 mph 27.6 mph N/A   Scattered Clouds
12:54 PM 81.0 °F 80.7 °F 55.0 °F 41% 29.77 in 10.0 mi South 23.0 mph 28.8 mph N/A   Scattered Clouds
1:54 PM 82.9 °F 81.8 °F 53.1 °F 36% 29.75 in 10.0 mi South 20.7 mph 27.6 mph N/A   Mostly Cloudy
2:54 PM 84.0 °F 82.5 °F 53.1 °F 34% 29.72 in 10.0 mi South 25.3 mph 35.7 mph N/A   Scattered Clouds
3:54 PM 84.2 °F 82.8 °F 53.6 °F 35% 29.82 in 10.0 mi South 25.3 mph 34.5 mph N/A   Scattered Clouds
4:54 PM 82.0 °F 81.4 °F 55.0 °F 39% 29.72 in 10.0 mi South 21.9 mph 35.7 mph N/A   Clear
5:54 PM 79.0 °F - 55.9 °F 45% 29.72 in 10.0 mi SSE 25.3 mph 32.2 mph N/A   Partly Cloudy
6:54 PM 75.9 °F - 57.0 °F 52% 29.74 in 10.0 mi SSE 27.6 mph 36.8 mph N/A   Mostly Cloudy
7:54 PM 73.9 °F - 57.9 °F 57% 29.74 in 10.0 mi SE 28.8 mph 36.8 mph N/A   Scattered Clouds
8:54 PM 73.0 °F - 59.0 °F 61% 29.73 in 10.0 mi SSE 28.8 mph 36.8 mph N/A   Scattered Clouds
9:54 PM 73.0 °F - 62.1 °F 68% 29.72 in 10.0 mi SSE 34.5 mph 48.3 mph N/A   Partly Cloudy
10:54 PM 71.1 °F - 62.1 °F 73% 29.71 in 10.0 mi SSE 31.1 mph 40.3 mph N/A   Clear
11:54 PM 70.0 °F - 62.1 °F 76% 29.70 in 10.0 mi SSE 26.5 mph 43.7 mph N/A   Clear